x

9449880 - Friday Harbor, Wa (frdw1) Weather Station

2:30 - Mon 23rd Jan 2017 All times are PST. -8 hours from GMT.

  • Wind
    5mph, 6mph gusts
  • Sea Temp 46°f
  • Luft Temp 45°f
  • Sea Pressure 1011.9mb
  • 9449880 - Friday Harbor, Wa
  • 9449880 - Friday Harbor, Wa

More Historic Weather Station data

Upgrade to MSW Pro to gain access to the past 30 days of data for over 8000 Wavebouys and Weather Stations around the globe.

Join Pro

Comparision Forecast

View Surf forecast
   
Mo 01/23 2:30 5 6 mph 1011.9mb 46f 45f
2:24 6 8 mph 1011.9mb 46f 44f
2:18 5 8 mph 1011.9mb 46f 45f
2:12 5 9 mph 1011.8mb 46f 44f
2:06 6 8 mph 1011.8mb 46f 45f
2:00 6 8 mph 1011.7mb 46f 45f
1:36 7 9 mph 1011.7mb 46f 44f
1:30 5 8 mph 1011.7mb 46f 44f
1:24 6 8 mph 1011.7mb 46f 44f
1:18 6 10 mph 1011.7mb 46f 44f
1:12 7 10 mph 1011.7mb 46f 45f
1:06 6 10 mph 1011.7mb 46f 44f
1:00 6 8 mph 1011.7mb 46f 44f
12:36 6 8 mph 1011.5mb 46f 44f
12:30 6 8 mph 1011.5mb 46f 44f
12:24 3 7 mph 1011.4mb 46f 44f
12:18 6 7 mph 1011.3mb 46f 44f
12:12 6 9 mph 1011.2mb 46f 44f
12:06 6 9 mph 1011.2mb 46f 44f
12:00 5 9 mph 1011.2mb 46f 44f
11:36 6 10 mph 1011.2mb 46f 43f
11:30 6 11 mph 1011.1mb 46f 43f
11:24 7 11 mph 1011.1mb 46f 44f
11:18 7 11 mph 1011mb 46f 44f
11:12 6 9 mph 1010.9mb 46f 44f
11:06 6 11 mph 1010.9mb 46f 43f
11:00 6 9 mph 1010.9mb 46f 43f
10:36 2 8 mph 1010.8mb 46f 42f
10:30 3 9 mph 1010.8mb 46f 42f
10:24 5 9 mph 1010.7mb 46f 42f
10:18 5 10 mph 1010.5mb 46f 42f
10:12 5 10 mph 1010.5mb 46f 42f
10:06 3 7 mph 1010.4mb 46f 43f
10:00 2 9 mph 1010.3mb 46f 43f
9:36 2 5 mph 1009.9mb 46f 42f
9:30 2 7 mph 1009.8mb 46f 43f
9:24 3 8 mph 1009.8mb 46f 43f
9:18 2 9 mph 1009.7mb 46f 43f
9:12 5 9 mph 1009.6mb 46f 43f
9:06 5 10 mph 1009.5mb 46f 43f
9:00 3 7 mph 1009.4mb 46f 43f
8:36 6 8 mph 1009.2mb 46f 42f
8:30 6 8 mph 1009.2mb 46f 42f
8:24 5 7 mph 1009.1mb 46f 42f
8:18 5 7 mph 1009mb 46f 42f
8:12 3 7 mph 1008.9mb 46f 41f
8:06 5 7 mph 1008.8mb 46f 41f
8:00 3 5 mph 1008.7mb 46f 40f
7:36 2 5 mph 1008.4mb 46f 40f
7:30 2 3 mph 1008.4mb 46f 40f
7:24 2 5 mph 1008.3mb 46f 40f
7:18 3 6 mph 1008.3mb 46f 40f
7:12 2 5 mph 1008.3mb 46f 40f
7:06 2 3 mph 1008.2mb 46f 40f
7:00 3 7 mph 1008.1mb 46f 40f
6:36 2 6 mph 1007.7mb 46f 39f
6:30 2 5 mph 1007.5mb 46f 39f
6:24 1 6 mph 1007.4mb 46f 39f
6:18 3 6 mph 1007.3mb 46f 39f
6:12 3 7 mph 1007.3mb 46f 39f
6:06 2 5 mph 1007.2mb 46f 39f
6:00 2 5 mph 1007.1mb 46f 39f
5:36 2 5 mph 1006.9mb 46f 38f
5:30  -  3 mph 1006.8mb 46f 38f
5:24 1 3 mph 1006.7mb 46f 37f
5:18  -  2 mph 1006.7mb 46f 35f
5:12 2 5 mph 1006.6mb 46f 35f
5:06 5
mph
1006.5mb 46f 35f
5:00 3
mph
1006.5mb 46f 36f
4:30 3 5 mph 1006.1mb 46f 35f
4:24 2 5 mph 1006mb 46f 37f
4:18  -  1 mph 1006mb 46f 37f
4:12  -  1 mph 1005.9mb 46f 37f
4:06  -  2 mph 1005.8mb 46f 36f
4:00 1 3 mph 1005.7mb 46f 36f
3:36 2 5 mph 1005.5mb 46f 36f
3:30 3 6 mph 1005.4mb 46f 35f
3:24 3 5 mph 1005.3mb 46f 38f
3:18  -  2 mph 1005.3mb 46f 38f
3:12 1 3 mph 1005.2mb 46f 39f
3:06 1 5 mph 1005.1mb 46f 36f
3:00 5 6 mph 1005mb 46f 36f
2:36 3 5 mph 1004.7mb 46f 37f
2:30  -  2 mph 1004.6mb 46f 37f
2:24 2 5 mph 1004.5mb 46f 37f
2:18 2 5 mph 1004.4mb 46f 37f
2:12  -  2 mph 1004.4mb 46f 38f
2:06  -  3 mph 1004.3mb 46f 38f
2:00  -  3 mph 1004.2mb 46f 38f
1:36 3 5 mph 1004mb 46f 38f
1:30 2 3 mph 1003.9mb 46f 38f
1:24 3 5 mph 1003.9mb 46f 38f
1:18  -  2 mph 1003.8mb 46f 39f
1:12  -  2 mph 1003.7mb 46f 39f
1:06 1 2 mph 1003.6mb 46f 39f
1:00  -  1 mph 1003.6mb 46f 40f
12:36 1 5 mph 1003.4mb 46f 41f
12:30 3 5 mph 1003.4mb 46f 42f
12:24 2 3 mph 1003.4mb 46f 41f
12:18  -  2 mph 1003.4mb 46f 40f
12:12 1 2 mph 1003.3mb 46f 42f
12:06 2 3 mph 1003.3mb 46f 42f
12:00 3 5 mph 1003.3mb 46f 43f
So 01/22 11:36 5 6 mph 1003.2mb 46f 43f
11:30 5 6 mph 1003.2mb 46f 42f
11:24 3 7 mph 1003.2mb 46f 43f
11:18 6 7 mph 1003.2mb 46f 43f
11:12 2 6 mph 1003.2mb 46f 42f
11:06 1 3 mph 1003.2mb 46f 41f
11:00 2 6 mph 1003.2mb 46f 44f
10:36 2 6 mph 1003mb 46f 43f
10:30 3 6 mph 1002.9mb 46f 44f
10:24 3 6 mph 1002.9mb 46f 44f
10:18 3 6 mph 1002.8mb 46f 44f
10:12 5 7 mph 1002.7mb 46f 44f
10:06 3 6 mph 1002.6mb 46f 43f
10:00 1 5 mph 1002.5mb 46f 43f
9:36 3 6 mph 1002.3mb 46f 43f
9:30 3 6 mph 1002.3mb 46f 43f
9:24 5 6 mph 1002.3mb 46f 44f
9:18 5 7 mph 1002.2mb 46f 44f
9:12 6 8 mph 1002.2mb 46f 44f
9:06 6 7 mph 1002.2mb 46f 44f
9:00 6 8 mph 1002.2mb 46f 44f
8:36 7 10 mph 1002.1mb 46f 44f
8:30 7 8 mph 1002.1mb 46f 44f
8:24 7 8 mph 1002mb 46f 44f
8:18 7 9 mph 1002mb 46f 44f
8:12 8 10 mph 1001.9mb 46f 44f
8:06 8 11 mph 1001.9mb 46f 44f
8:00 8 9 mph 1001.9mb 46f 44f
7:36 8 10 mph 1001.8mb 46f 45f
7:30 7 10 mph 1001.7mb 46f 45f
7:24 7 9 mph 1001.7mb 46f 45f
7:18 7 9 mph 1001.8mb 46f 45f
7:12 7 9 mph 1001.7mb 46f 45f
7:06 8 10 mph 1001.7mb 46f 45f
7:00 9 11 mph 1001.7mb 46f 45f
6:36 7 9 mph 1001.6mb 46f 44f
6:30 7 9 mph 1001.5mb 46f 44f
6:24 7 10 mph 1001.5mb 46f 44f
6:18 7 10 mph 1001.5mb 46f 44f
6:12 8 10 mph 1001.5mb 46f 44f
6:06 8 11 mph 1001.5mb 46f 45f
6:00 8 9 mph 1001.4mb 46f 45f
5:36 7 10 mph 1001.4mb 46f 45f
5:30 6 9 mph 1001.3mb 46f 45f
5:24 7 11 mph 1001.2mb 46f 45f
5:18 6 8 mph 1001.2mb 46f 45f
5:12 3 6 mph 1001.2mb 46f 45f
5:06 5 7 mph 1001.2mb 46f 45f
5:00 6 9 mph 1001mb 46f 45f
4:36 7 8 mph 1001.1mb 46f 45f
4:30 5 9 mph 1001.1mb 46f 45f
4:24 7 10 mph 1001.1mb 46f 45f
4:18 7 11 mph 1000.9mb 46f 45f
4:12 7 10 mph 1000.7mb 46f 45f
4:06 8 13 mph 1000.7mb 46f 45f
4:00 6 14 mph 1000.7mb 46f 45f
3:36 7 11 mph 1000.7mb 46f 45f
3:30 8 11 mph 1000.7mb 46f 45f
3:24 11 14 mph 1000.6mb 46f 45f
3:18 10 14 mph 1000.5mb 46f 45f
3:12 9 13 mph 1000.3mb 46f 45f
3:06 10 14 mph 1000.2mb 46f 45f
3:00 9 13 mph 1000.2mb 46f 45f
2:54 8 11 mph 1000.3mb 46f 45f
2:48 9 13 mph 1000.2mb 46f 45f
2:36 9 13 mph 1000.2mb 46f 45f
2:30 8 11 mph 1000.2mb 46f 45f
2:24 9 14 mph 1000.1mb 46f 45f
2:18 9 13 mph 1000.1mb 46f 45f
2:12 7 10 mph 1000mb 46f 46f
2:06 8 11 mph 1000.1mb 46f 46f
2:00 8 13 mph 1000.1mb 46f 46f
1:54 7 13 mph 1000mb 46f 46f
1:48 7 11 mph 1000mb 46f 46f
1:36 8 10 mph 1000mb 46f 46f
1:30 10 14 mph 1000mb 46f 46f
1:24 7 14 mph 999.9mb 46f 46f
1:18 7 10 mph 999.9mb 46f 46f
1:12 8 14 mph 999.8mb 46f 46f
1:06 7 11 mph 999.7mb 46f 46f
1:00 8 13 mph 999.7mb 46f 46f
12:54 9 14 mph 999.7mb 46f 46f
12:48 8 16 mph 999.6mb 46f 46f
12:36 9 16 mph 999.4mb 46f 46f
12:30 11 18 mph 999.3mb 46f 47f
12:24 10 15 mph 999.3mb 46f 47f
12:18 8 16 mph 999.2mb 46f 46f
12:12 8 16 mph 999.2mb 46f 46f
12:06 8 15 mph 999.2mb 46f 46f
12:00 11 17 mph 999.2mb 46f 46f
11:54 13 16 mph 999.2mb 46f 46f
11:48 13 17 mph 999.1mb 46f 46f
11:36 14 17 mph 999.1mb 46f 46f
11:30 9 14 mph 999.1mb 46f 46f
11:24 8 14 mph 999.1mb 46f 46f
11:18 8 15 mph 999.1mb 46f 45f
11:12 9 16 mph 999mb 46f 45f
11:06 9 13 mph 998.9mb 46f 45f
11:00 8 15 mph 998.8mb 46f 45f
10:54 7 13 mph 998.8mb 46f 45f
10:48 10 14 mph 998.8mb 46f 45f
10:36  -  mph 998.7mb 46f -
10:30  -  mph 998.8mb 46f -
10:24  -  mph 998.8mb 46f -
10:18  -  mph 998.8mb 46f -
10:12  -  mph 998.7mb 46f -
10:06  -  mph 998.6mb 46f -
10:00  -  mph 998.5mb 46f -
9:54  -  mph 998.4mb 46f -
9:48  -  mph 998.3mb 46f -
9:36 6 8 mph 997.9mb 46f 46f
9:30 6 8 mph 997.8mb 46f 46f
9:24 5 7 mph 997.6mb 46f 46f
9:18 5 7 mph 997.4mb 46f 46f
9:12 6 7 mph 997.4mb 46f 46f
9:06 5 8 mph 997.4mb 46f 46f
9:00 8 9 mph 997.3mb 46f 46f
8:36 9 10 mph 997mb 46f 46f
8:30 8 10 mph 996.8mb 46f 46f
8:24 3 6 mph 996.7mb 46f 45f
8:18 2 3 mph 996.5mb 46f 45f
8:12 2 3 mph 996.4mb 46f 45f
8:06 2 6 mph 996.4mb 46f 45f
8:00 6 7 mph 996.2mb 46f 45f
7:36 2 3 mph 996.1mb 46f 41f
7:30  -  2 mph 996.2mb 46f 42f
7:24  -  1 mph 996.2mb 46f 42f
7:18  -  2 mph 996.3mb 46f 42f
7:12 1 2 mph 996.4mb 46f 43f
7:06  -  2 mph 996.4mb 46f 44f
7:00  -  2 mph 996.5mb 46f 44f
6:54  -  2 mph 996.5mb 46f 43f
6:48  -  6 mph 996.6mb 46f 43f
6:36  -  1 mph 996.8mb 46f 44f
6:30  -  1 mph 996.8mb 46f 43f
6:24  -  3 mph 996.8mb 46f 43f
6:18 1 2 mph 996.9mb 46f 43f
6:12 1 5 mph 997mb 46f 44f
6:06 3 5 mph 997mb 46f 45f
6:00 3 6 mph 997mb 46f 45f
5:54 7 10 mph 997.1mb 46f 45f
5:48 8 10 mph 997.1mb 46f 45f
5:36 8 10 mph 997.4mb 46f 45f
5:30 9 11 mph 997.5mb 46f 45f
5:24 10 16 mph 997.6mb 46f 45f
5:18 13 15 mph 997.7mb 46f 45f
5:12 10 13 mph 997.8mb 46f 45f
5:06 10 15 mph 997.9mb 46f 45f
5:00 13 15 mph 997.8mb 46f 45f
4:54 11 15 mph 998mb 46f 45f
4:48 13 15 mph 998mb 46f 45f
4:36 11 14 mph 998.3mb 46f 45f
4:30 10 14 mph 998.5mb 46f 45f
4:24 10 14 mph 998.7mb 46f 45f
4:18 10 13 mph 999mb 46f 45f
4:12 9 11 mph 999.2mb 46f 45f
4:06 9 11 mph 999.3mb 46f 45f
4:00 8 9 mph 999.5mb 46f 45f
3:54 9 11 mph 999.7mb 46f 45f
3:48 9 11 mph 999.9mb 46f 45f
3:36 8 10 mph 1000.1mb 46f 45f
3:30 7 13 mph 1000.2mb 46f 45f
3:24 7 10 mph 1000.3mb 46f 45f
3:18 7 10 mph 1000.4mb 46f 45f
3:12 8 10 mph 1000.5mb 46f 45f
3:06 9 11 mph 1000.4mb 46f 45f
3:00 9 11 mph 1000.5mb 46f 45f
2:54 9 13 mph 1000.6mb 46f 45f
2:48 9 11 mph 1000.7mb 46f 45f
2:36 8 10 mph 1001mb 46f 45f
2:30 9 10 mph 1001.1mb 46f 45f
2:24 8 11 mph 1001mb 46f 45f
2:18 8 10 mph 1001mb 46f 45f
2:12 9 11 mph - - 45f
2:06 9 11 mph 1000.9mb 46f 45f
2:00 10 14 mph 1000.9mb 46f 45f
1:54 9 13 mph 1001mb 46f 45f
1:48 9 13 mph 1001.1mb 46f 45f
1:36 10 16 mph 1001.1mb 46f 46f
1:30 11 16 mph 1001.2mb 46f 46f
1:24 10 14 mph 1001.2mb 46f 45f
1:18 10 13 mph 1001.3mb 46f 45f
1:12 10 14 mph - - 45f
1:06 10 14 mph 1001.6mb 46f 45f
1:00 9 13 mph 1001.6mb 46f 45f
12:54 9 13 mph 1001.6mb 46f 45f
12:48 8 11 mph 1001.6mb 46f 46f
12:36 9 11 mph 1001.7mb 46f 45f
12:30 10 11 mph 1001.7mb 46f 45f
12:24 9 10 mph 1001.7mb 46f 45f
12:18 8 10 mph 1001.8mb 46f 45f
12:12 7 10 mph 1002mb 46f 45f
12:06 7 13 mph 1002.1mb 46f 45f
12:00 7 11 mph 1002.2mb 46f 45f
Sa 01/21 11:54 8 16 mph 1002.2mb 46f 45f
11:48 9 14 mph 1002.1mb 46f 45f
11:36 8 11 mph 1002mb 46f 45f
11:30 8 10 mph 1001.8mb 46f 45f
11:24 8 11 mph 1001.9mb 46f 45f
11:18 8 13 mph 1001.9mb 46f 45f
11:12 7 10 mph 1001.7mb 46f 45f
11:06 8 10 mph 1001.7mb 46f 45f
11:00 7 10 mph 1001.6mb 46f 45f
10:54 8 11 mph 1001.5mb 46f 45f
10:48 8 11 mph 1001.6mb 46f 45f
10:36 10 14 mph 1001.5mb 46f 45f
10:30 8 10 mph 1001.3mb 46f 45f
10:24 9 13 mph 1001.3mb 46f 45f
10:18 10 11 mph 1001.3mb 46f 46f
10:12 9 13 mph 1001.4mb 46f 46f
10:06 10 14 mph 1001.4mb 46f 46f
10:00 10 14 mph 1001.3mb 46f 46f
9:54 9 14 mph 1001.3mb 46f 46f
9:48 9 14 mph 1001.2mb 46f 46f
9:36 9 11 mph 1001.2mb 46f 46f
9:30 8 10 mph 1001.2mb 46f 46f
9:24 7 8 mph 1001.2mb 46f 46f
9:18 8 9 mph 1001.1mb 46f 46f
9:12 7 8 mph 1001.1mb 46f 47f
9:06 5 9 mph 1001.1mb 46f 47f
9:00 6 10 mph 1001mb 46f 47f
8:54 6 8 mph 1001mb 46f 47f
8:48 6 9 mph 1000.9mb 46f 47f
8:36 6 8 mph 1000.8mb 46f 47f
8:30 6 9 mph 1000.7mb 46f 47f
8:24 5 9 mph 1000.6mb 46f 47f
8:18 5 8 mph 1000.6mb 46f 47f
8:12 6 8 mph 1000.5mb 46f 47f
8:06 6 9 mph 1000.5mb 46f 48f
8:00 5 8 mph 1000.3mb 46f 47f
7:54 3 7 mph 1000.2mb 46f 47f
7:48 6 9 mph 1000.1mb 46f 48f
7:36 5 8 mph 1000mb 46f 48f
7:30 5 9 mph 999.9mb 46f 47f
7:24 5 6 mph 999.9mb 46f 48f
7:18 5 6 mph 999.8mb 46f 47f
7:12 2 3 mph 999.6mb 46f 47f
7:06  -  2 mph 999.5mb 46f 47f
7:00  -  2 mph 999.4mb 46f 47f
6:54 1 2 mph 999.3mb 46f 47f
6:48  -  1 mph 999.2mb 46f 47f
6:36 1 2 mph 999mb 46f 47f
6:30 1 5 mph 998.9mb 46f 47f
6:24  -  1 mph 998.8mb 46f 47f
6:18 1 3 mph 998.7mb 46f 47f
6:12 3 5 mph 998.6mb 46f 47f
6:06 3 6 mph 998.5mb 46f 47f
6:00 3 6 mph 998.4mb 46f 47f
5:54 3 6 mph 998.3mb 46f 47f
5:48 2 6 mph 998.2mb 46f 48f
5:36 1 3 mph 998.1mb 46f 48f
5:30 2 3 mph 998.1mb 46f 48f
5:24  -  2 mph 998mb 46f 48f
5:18 1 3 mph 997.9mb 46f 48f
5:12 1 3 mph 997.8mb 46f 48f
5:06 2 5 mph 997.8mb 46f 48f
5:00 2 3 mph 997.7mb 46f 48f
4:54 2 6 mph 997.7mb 46f 48f
4:48 6 8 mph 997.6mb 46f 48f
4:36 7 9 mph 997.4mb 46f 48f
4:30 7 9 mph 997.4mb 46f 48f
4:24 6 9 mph 997.3mb 46f 48f
4:18 6 8 mph 997.2mb 46f 48f
4:12 6 8 mph 997.2mb 46f 48f
4:06 7 8 mph 997.2mb 46f 48f
4:00 7 9 mph 997.1mb 46f 48f
3:54 7 9 mph 997.1mb 46f 48f
3:48 8 10 mph 997mb 46f 48f
3:36 7 9 mph 996.9mb 46f 48f
3:30 6 9 mph 996.9mb 46f 48f
3:24 7 8 mph 996.8mb 46f 48f
3:18 7 9 mph 996.7mb 46f 48f
3:12 7 9 mph 996.6mb 46f 49f
3:06 7 9 mph 996.6mb 46f 49f
3:00 7 9 mph 996.5mb 46f 48f
2:54 6 8 mph 996.5mb 46f 48f
2:48 6 9 mph 996.3mb 46f 48f
2:36 7 9 mph 996.2mb 46f 48f
2:30 6 8 mph 996.1mb 46f 47f
2:24 6 8 mph 996.1mb 46f 47f
2:18 7 10 mph 996mb 46f 48f
2:12 7 9 mph 995.9mb 46f 47f
2:06 6 9 mph 995.9mb 46f 47f
2:00 8 10 mph 995.8mb 46f 47f
1:54 7 10 mph 995.7mb 46f 47f
1:48 7 10 mph 995.7mb 46f 47f
1:36 7 10 mph 995.7mb 46f 47f
1:30 10 14 mph 995.6mb 46f 47f
1:24 10 13 mph 995.5mb 46f 47f
1:18 9 11 mph 995.5mb 46f 47f
1:12 8 11 mph 995.5mb 46f 47f
1:06 10 11 mph 995.5mb 46f 47f
1:00 8 10 mph 995.5mb 46f 47f
12:54 8 10 mph 995.6mb 46f 47f
12:48 6 9 mph 995.5mb 46f 47f
12:36 7 10 mph 995.5mb 46f 47f
12:30 8 13 mph 995.5mb 46f 48f
12:24 5 8 mph 995.4mb 46f 48f
12:18 7 13 mph 995.4mb 46f 48f
12:12 8 13 mph 995.3mb 46f 48f
12:06 8 13 mph 995.3mb 46f 48f
12:00 9 15 mph 995.3mb 46f 48f
11:54 9 14 mph 995.2mb 46f 49f
11:48 9 16 mph 995.1mb 46f 49f
11:36 9 14 mph 995mb 46f 48f
11:30 9 13 mph 994.9mb 46f 48f
11:24 10 14 mph 994.9mb 46f 48f
11:18 10 13 mph 994.9mb 46f 48f
11:12 11 14 mph 994.8mb 46f 48f
11:06 10 14 mph 994.7mb 46f 48f
11:00 9 11 mph 994.6mb 46f 47f
10:54 9 13 mph 994.6mb 46f 47f
10:48 8 10 mph 994.6mb 46f 47f
10:36 7 11 mph 994.5mb 46f 47f
10:30 6 8 mph 994.5mb 46f 47f
10:24 7 9 mph 994.3mb 46f 46f
10:18 7 9 mph 994.3mb 46f 46f
10:12 7 9 mph 994.2mb 46f 46f
10:06 8 11 mph 994mb 46f 46f
10:00 8 11 mph 994mb 46f 46f
9:54 9 11 mph 993.9mb 46f 46f
9:48 9 10 mph 993.9mb 46f 46f
9:36 9 11 mph 993.7mb 46f 46f
9:30 9 11 mph 993.6mb 46f 46f
9:24 9 11 mph 993.5mb 46f 46f
9:18 9 11 mph 993.4mb 46f 46f
9:12 9 11 mph 993.3mb 46f 46f
9:06 7 9 mph 993.2mb 46f 46f
9:00 7 9 mph 993.1mb 46f 46f
8:54 7 9 mph 993.1mb 46f 46f
8:48 8 11 mph 993mb 46f 46f
8:36 10 13 mph 992.8mb 46f 46f
8:30 9 13 mph 992.7mb 46f 45f
8:24 9 13 mph 992.7mb 46f 45f
8:18 10 13 mph 992.6mb 46f 45f
8:12 10 13 mph 992.6mb 46f 45f
8:06 9 13 mph 992.6mb 46f 45f
8:00 10 13 mph 992.5mb 46f 45f
7:54 9 11 mph 992.4mb 46f 45f
7:48 9 11 mph 992.3mb 46f 45f
7:36 6 8 mph 992.2mb 46f 45f
7:30 7 10 mph 992.1mb 46f 44f
7:24 8 11 mph 992.1mb 46f 44f
7:18 9 10 mph 992.1mb 46f 44f
7:12 8 11 mph 992.1mb 46f 44f
7:06 8 10 mph 992mb 46f 45f
7:00 9 10 mph 991.9mb 46f 45f
6:54 9 11 mph 991.8mb 46f 45f
6:48 8 10 mph 991.8mb 46f 45f
6:36 9 13 mph 991.7mb 46f 45f
6:30 10 14 mph 991.7mb 46f 45f
6:24 10 11 mph 991.7mb 46f 45f
6:18 8 11 mph 991.7mb 46f 45f
6:12 8 9 mph 991.6mb 46f 45f
6:06 6 7 mph 991.6mb 46f 45f
6:00 5 6 mph 991.5mb 46f 45f
5:54 6 7 mph 991.4mb 46f 45f
5:48 6 7 mph 991.4mb 46f 45f
5:36 3 6 mph 991.3mb 46f 45f
5:30 3 5 mph 991.2mb 46f 45f
5:24 3 6 mph 991.2mb 46f 45f
5:18 3 6 mph 991.1mb 46f 45f
5:12 5 6 mph 991mb 46f 45f
5:06 6
mph
991mb 46f 45f
5:00 6
mph
990.9mb 46f 45f
4:54 6 8 mph 990.9mb 46f 45f
4:48 6 7 mph 990.9mb 46f 45f
4:36 6
mph
990.9mb 46f 45f
4:30 6
mph
990.9mb 46f 45f
4:24 5 6 mph 990.9mb 46f 45f
4:18 5 6 mph 990.9mb 46f 45f
4:12 5 6 mph 990.8mb 46f 45f
4:06 5 6 mph 990.8mb 46f 45f
4:00 5 7 mph 990.7mb 46f 45f
3:54 6 7 mph 990.7mb 46f 45f
3:48 5 6 mph 990.7mb 46f 45f
3:36 6 7 mph 990.5mb 46f 45f
3:30 5 7 mph 990.5mb 46f 45f
3:24 6 8 mph 990.4mb 46f 45f
3:18 7 8 mph 990.4mb 46f 45f
3:12 7 9 mph 990.4mb 46f 46f
3:06 8 9 mph 990.3mb 46f 46f
3:00 8 9 mph 990.3mb 46f 46f
2:54 8 10 mph 990.3mb 46f 46f
2:48 7 10 mph 990.3mb 46f 46f
2:36 7 9 mph 990.2mb 46f 46f
2:30 8 13 mph 990.1mb 46f 46f
2:24 9 11 mph 990.1mb 46f 46f
2:18 10 14 mph 990mb 46f 46f
2:12 10 13 mph 990mb 46f 45f
2:06 11 13 mph 989.9mb 46f 46f
2:00 10 11 mph 989.9mb 46f 46f
1:54 10 13 mph 989.9mb 46f 46f
1:48 9 11 mph 989.8mb 46f 46f
1:36 8 11 mph 989.7mb 46f 46f
1:30 8 10 mph 989.6mb 46f 45f
1:24 9 10 mph 989.6mb 46f 46f
1:18 8 9 mph 989.6mb 46f 45f
1:12 6 7 mph 989.6mb 46f 45f
1:06 5 6 mph 989.7mb 46f 45f
1:00 3 5 mph 989.7mb 46f 45f
12:54 2 3 mph 989.6mb 46f 45f
12:48 2 3 mph 989.6mb 46f 46f
12:36 3 5 mph 989.5mb 46f 46f
12:30 1 5 mph 989.4mb 46f 46f
12:24  -  1 mph 989.3mb 46f 46f
12:18 1 2 mph 989.2mb 46f 46f
12:12  -  mph 989.1mb 46f 46f
12:06  -  mph 989.1mb 46f 46f
12:00  -  1 mph 989.1mb 46f 46f
Fr 01/20 11:54  -  2 mph 989mb 46f 46f
11:48  -  2 mph 989mb 46f 46f
11:36  -  2 mph 988.9mb 46f 46f
11:30  -  2 mph 988.9mb 46f 46f
11:24 1 2 mph 988.8mb 46f 47f
11:18 2 3 mph 988.7mb 46f 47f
11:12 2
mph
988.7mb 46f 47f
11:06  -  2 mph 988.7mb 46f 46f
11:00  -  2 mph 988.6mb 46f 47f
10:54  -  2 mph 988.6mb 46f 47f
10:48 1 2 mph 988.5mb 46f 47f
10:36 3 5 mph 988.4mb 46f 47f
10:30 5 6 mph 988.4mb 46f 47f
10:24 3 6 mph 988.3mb 46f 48f
10:18 3 6 mph 988.2mb 46f 48f
10:12 3 6 mph 988.2mb 46f 49f
10:06 5 7 mph 988.1mb 46f 49f
10:00 5 8 mph 988mb 46f 49f
9:54 5 7 mph 988mb 46f 49f
9:48 5 9 mph 988mb 46f 49f
9:36 5 6 mph 988mb 46f 48f
9:30 3 6 mph 988mb 46f 48f
9:24 5 6 mph 988mb 46f 48f
9:18 5 6 mph 988mb 46f 48f
9:12 7 11 mph 988mb 46f 48f
9:06 6 10 mph 988mb 46f 47f
9:00 3 6 mph 988mb 46f 46f
8:54  -  2 mph 988mb 46f 45f
8:48 2 3 mph 987.9mb 46f 46f
8:36 1 3 mph 987.8mb 46f 46f
8:30 3 5 mph 987.8mb 46f 44f
8:24 3 5 mph 987.8mb 46f 45f
8:18  -  1 mph 987.7mb 46f 45f
8:12 1 2 mph 987.7mb 46f 45f
8:06  -  1 mph 987.7mb 46f 45f
8:00  -  1 mph 987.6mb 46f 45f
7:54 1 5 mph 987.7mb 46f 45f
7:48 3 5 mph 987.6mb 46f 46f
7:36  -  1 mph 987.4mb 46f 46f
7:30  -  2 mph 987.4mb 46f 46f
7:24  -  3 mph 987.3mb 46f 46f
7:18  -  3 mph 987.2mb 46f 46f
7:12 1 3 mph 987.2mb 46f 46f
7:06  -  5 mph 987mb 46f 46f
7:00  -  5 mph 986.9mb 46f 46f
6:54  -  5 mph 986.9mb 46f 46f
6:48 2 3 mph 986.9mb 46f 46f
6:36 1 6 mph 986.9mb 46f 46f
6:30 2 6 mph 986.9mb 46f 46f
6:24 2 5 mph 986.9mb 46f 46f
6:18 2 5 mph 986.9mb 46f 46f
6:12  -  3 mph 986.9mb 46f 46f
6:06 1 3 mph 986.7mb 46f 46f
6:00 2 7 mph 986.7mb 46f 46f
5:54 2 6 mph 986.7mb 46f 46f
5:48 2 5 mph 986.6mb 46f 46f
5:36 1 6 mph 986.6mb 46f 46f
5:30  -  5 mph 986.6mb 46f 46f
5:24 1 3 mph 986.5mb 46f 46f
5:18  -  6 mph 986.5mb 46f 46f
5:12  -  6 mph 986.5mb 46f 46f
5:06 2 7 mph 986.4mb 46f 46f
5:00 2 6 mph 986.4mb 46f 46f
4:54 3 7 mph 986.4mb 46f 46f
4:48 2 6 mph 986.4mb 46f 46f
4:36 2 5 mph 986.3mb 46f 46f
4:30  -  2 mph 986.4mb 46f 46f
4:24 2 6 mph 986.5mb 46f 47f
4:18 2 6 mph 986.4mb 46f 47f
4:12 3 8 mph 986.5mb 46f 47f
4:06 3 9 mph 986.4mb 46f 47f
4:00 3 8 mph 986.4mb 46f 47f
3:54 5 7 mph 986.3mb 46f 47f
3:48 5 10 mph 986.3mb 46f 47f
3:36 5 8 mph 986.3mb 46f 47f
3:30 5 9 mph 986.2mb 46f 48f
3:24 5 7 mph 986.2mb 46f 48f
3:18 3 7 mph 986.2mb 46f 48f
3:12 2 6 mph 986.3mb 46f 48f
3:06 1 7 mph 986.3mb 46f 48f
3:00 3 7 mph 986.2mb 46f 48f
2:54 5 7 mph 986.2mb 46f 48f
2:48 3 6 mph 986.2mb 46f 49f
2:36 3 5 mph 986.2mb 46f 49f
2:30 2 6 mph 986.2mb 46f 49f
2:24 2 5 mph 986.2mb 46f 49f
2:18 3 6 mph 986.2mb 46f 49f
2:12 1 3 mph 986.2mb 46f 49f
2:06 1 3 mph 986.2mb 46f 49f
2:00 1 3 mph 986.2mb 46f 49f
1:54 2 5 mph 986.2mb 46f 49f
1:48 2 3 mph 986.2mb 46f 49f
1:36  -  3 mph 986.3mb 46f 49f
1:30 1 5 mph 986.3mb 46f 49f
1:24 3 6 mph 986.3mb 46f 49f
1:18 6 8 mph 986.3mb 46f 49f
1:12 5 7 mph 986.4mb 46f 49f
1:06 6
mph
986.4mb 46f 49f
1:00 3 6 mph 986.4mb 46f 49f
12:54 5 7 mph 986.4mb 46f 49f
12:48 6 7 mph 986.5mb 46f 49f
12:36 5 7 mph 986.5mb 46f 48f
12:30 6
mph
986.6mb 46f 49f
12:24 5 7 mph 986.7mb 46f 49f
12:18 5 7 mph 986.8mb 46f 49f
12:12 5 7 mph 986.8mb 46f 49f
12:06 5 6 mph 987mb 46f 49f
12:00 3 5 mph 987mb 46f 49f
11:54 2 5 mph 987.2mb 46f 48f
11:48 3 5 mph 987.2mb 46f 48f
11:36 5 6 mph 987.3mb 46f 48f
11:30 3 7 mph 987.4mb 46f 49f
11:24 5 7 mph 987.4mb 46f 49f
11:18 5 6 mph 987.6mb 46f 48f
11:12 5 6 mph 987.6mb 46f 48f
11:06 3 5 mph 987.7mb 46f 48f
11:00 3 5 mph 987.7mb 46f 47f
10:54 3 5 mph 987.8mb 46f 47f
10:48 2 3 mph 987.8mb 46f 47f
10:36 2
mph
987.9mb 46f 47f
10:30 2 3 mph 988mb 46f 47f
10:24 2 3 mph 988mb 46f 47f
10:18 2 3 mph 988mb 46f 47f
10:12 3 5 mph 988.1mb 46f 46f
10:06 3 5 mph 988.2mb 46f 46f
10:00 1 2 mph 988.2mb 46f 46f
9:54  -  1 mph 988.2mb 46f 45f
9:48  -  2 mph 988.2mb 46f 44f
9:36  -  2 mph 988.3mb 46f 43f
9:30  -  2 mph 988.3mb 46f 41f
9:24 2 3 mph 988.4mb 46f 39f
9:18  -  2 mph 988.5mb 46f 40f
9:12 1 2 mph 988.5mb 46f 39f
9:06 2 3 mph 988.6mb 46f 38f
9:00 2 3 mph 988.6mb 46f 38f
8:54 3
mph
988.6mb 46f 38f
8:48 3 5 mph 988.6mb 45f 38f
8:36 2
mph
988.7mb 46f 38f
8:30 1 2 mph 988.8mb 46f 38f
8:24 2 3 mph 988.8mb 45f 38f
8:18 2 3 mph 988.9mb 46f 38f
8:12 2 3 mph 989mb 46f 38f
8:06 2
mph
988.9mb 46f 38f
8:00  -  2 mph 988.9mb 46f 38f
7:54 1 2 mph 989mb 46f 38f
7:48 2 3 mph 989mb 46f 37f
7:36  -  2 mph 989.2mb 46f 39f
7:30  -  2 mph 989.3mb 46f 38f
7:24 1 2 mph 989.4mb 46f 38f
7:18 1 2 mph 989.4mb 46f 38f
7:12 1 2 mph 989.5mb 46f 39f
7:06  -  1 mph 989.6mb 46f 40f
7:00  -  1 mph 989.7mb 46f 40f
6:54  -  1 mph 989.8mb 46f 40f
6:48  -  1 mph 989.9mb 46f 41f
6:36  -  1 mph 990.1mb 46f 42f
6:30  -  1 mph 990.2mb 46f 42f
6:24 1 5 mph 990.2mb 46f 42f
6:18 3 5 mph 990.3mb 46f 43f
6:12 5 6 mph 990.4mb 46f 44f
6:06 5 7 mph 990.5mb 46f 44f
6:00 5 6 mph 990.6mb 46f 44f
5:54 3 5 mph 990.7mb 46f 43f
5:48 3 5 mph 990.8mb 46f 43f
5:36 1 3 mph 990.9mb 46f 43f
5:30 2 3 mph 991.1mb 46f 43f
5:24 3 6 mph 991.1mb 46f 44f
5:18 3 6 mph 991.1mb 46f 44f
5:12 3 7 mph 991.2mb 46f 44f
5:06 7 9 mph 991.3mb 46f 45f
5:00 7 8 mph 991.4mb 46f 45f
4:54 5 6 mph 991.5mb 46f 44f
4:48 5 7 mph 991.5mb 46f 44f
4:36 5 7 mph 991.8mb 46f 44f
4:30 7 8 mph - - 44f
4:24 6 7 mph - - 44f
4:18 6 7 mph 992.1mb 46f 44f
4:12 6 8 mph 992.2mb 46f 44f
4:06 8 10 mph 992.3mb 46f 44f
4:00 9 13 mph 992.4mb 46f 44f
3:54 9 13 mph 992.5mb 46f 44f
3:48 10 13 mph 992.5mb 46f 45f
3:36 10 13 mph 992.7mb 46f 46f
3:30 10 14 mph 992.7mb 46f 46f
3:24 10 14 mph 992.9mb 46f 46f
3:18 9 11 mph 993mb 46f 46f
3:12 7 10 mph 993.1mb 46f 46f
3:06 8 13 mph 993.2mb 46f 46f
3:00 9 13 mph 993.3mb 46f 46f
2:54 9 11 mph 993.4mb 46f 46f
2:48 6 9 mph 993.4mb 46f 46f
2:36 7 9 mph 993.7mb 46f 46f
2:30 6 9 mph 993.7mb 46f 45f
2:24 6 11 mph 993.9mb 46f 45f
2:18 7 10 mph 994mb 46f 45f
2:12 7 11 mph 994mb 46f 45f
2:06 8 11 mph 994mb 46f 45f
2:00 8 10 mph 994mb 46f 45f
1:54 7 9 mph 994.2mb 46f 45f
1:48 7 10 mph 994.2mb 46f 45f
1:36 7 10 mph 994.5mb 46f 45f
1:30 6 8 mph 994.6mb 46f 46f
1:24 6 9 mph 994.7mb 46f 46f
1:18 6 9 mph 994.8mb 46f 46f
1:12 6 9 mph 994.9mb 46f 46f
1:06 8 13 mph 994.9mb 46f 46f
1:00 7 13 mph 994.9mb 46f 46f
12:54 5 9 mph 995mb 46f 46f
12:48 7 11 mph 995.1mb 46f 46f
12:36 8 14 mph 995.2mb 46f 46f
12:30 8 11 mph 995.3mb 46f 46f
12:24 8 14 mph 995.4mb 46f 45f
12:18 8 14 mph 995.4mb 46f 45f
12:12 9 20 mph 995.5mb 46f 45f
12:06 8 11 mph 995.6mb 46f 45f
12:00 9 15 mph 995.7mb 46f 45f
Do 01/19 11:54 8 11 mph 995.7mb 46f 45f
11:48 8 14 mph 995.8mb 46f 45f
11:36 8 13 mph 995.9mb 46f 45f
11:30 9 13 mph 996mb 46f 45f
11:24 7 13 mph 996.1mb 46f 45f